| time (UTC) | temp F | wind direction | speed MPH | gust MPH | rain 1hr in | rain 24hr in | rain mn in | humidity % | barometer mb |
| 20260903030014 | 80 | 180 | 1.0 | 0.0 | 0.00 | 0.00 | 0.03 | 90 | 1014.8 |
| 20260903024513 | 80 | 171 | 1.0 | 0.0 | 0.00 | 0.00 | 0.03 | 91 | 1014.4 |
| 20260903023013 | 80 | 228 | 1.0 | 0.0 | 0.00 | 0.00 | 0.03 | 89 | 1014.2 |
| 20260903021513 | 80 | 265 | 0.0 | 0.0 | 0.00 | 0.00 | 0.03 | 88 | 1013.9 |
| 20260903020012 | 81 | 278 | 1.0 | 0.0 | 0.00 | 0.00 | 0.03 | 87 | 1013.7 |
| 20260903014511 | 82 | 222 | 1.0 | 0.0 | 0.00 | 0.00 | 0.03 | 83 | 1013.9 |
| 20260903013011 | 84 | 88 | 3.0 | 0.0 | 0.00 | 0.00 | 0.01 | 86 | 1013.5 |
| 20260903011511 | 85 | 146 | 0.0 | 0.0 | 0.00 | 0.00 | 0.01 | 83 | 1013.3 |
| 20260903010011 | 85 | 24 | 2.0 | 0.0 | 0.00 | 0.00 | 0.01 | 81 | 1013.4 |
| 20260903004511 | 85 | 34 | 2.0 | 0.0 | 0.00 | 0.00 | 0.01 | 80 | 1013.3 |
| 20260903003010 | 86 | 360 | 3.0 | 0.0 | 0.00 | 0.00 | 0.01 | 79 | 1012.9 |
| 20260903001509 | 86 | 329 | 1.0 | 0.0 | 0.00 | 0.00 | 0.01 | 78 | 1012.8 |
| 20260903000008 | 87 | 304 | 1.0 | 0.0 | 0.00 | 0.00 | 0.01 | 76 | 1012.7 |
| 20260902234507 | 87 | 283 | 1.0 | 0.0 | 0.00 | 0.00 | 0.01 | 76 | 1012.7 |
| 20260902233008 | 88 | 355 | 2.0 | 0.0 | 0.00 | 0.00 | 0.01 | 75 | 1012.6 |
| 20260902231512 | 88 | 290 | 3.0 | 0.0 | 0.00 | 0.00 | 0.01 | 73 | 1012.6 |
| 20260902230006 | 89 | 267 | 2.0 | 0.0 | 0.00 | 0.00 | 0.01 | 71 | 1012.8 |
| 20260902224506 | 89 | 265 | 2.0 | 0.0 | 0.00 | 0.00 | 0.01 | 70 | 1012.5 |
| 20260902223006 | 90 | 269 | 5.0 | 0.0 | 0.00 | 0.00 | 0.01 | 68 | 1012.1 |
| 20260902221504 | 90 | 268 | 4.0 | 0.0 | 0.00 | 0.00 | 0.01 | 68 | 1012.3 |
| 20260902220006 | 92 | 253 | 4.0 | 0.0 | 0.00 | 0.00 | 0.01 | 66 | 1012.2 |
| 20260902214502 | 94 | 264 | 4.0 | 0.0 | 0.00 | 0.00 | 0.01 | 63 | 1012.4 |
| 20260902213004 | 95 | 281 | 2.0 | 0.0 | 0.00 | 0.00 | 0.01 | 63 | 1012.4 |
| 20260902211505 | 95 | 206 | 3.0 | 0.0 | 0.00 | 0.00 | 0.01 | 63 | 1012.5 |
| 20260902210001 | 95 | 267 | 2.0 | 0.0 | 0.00 | 0.00 | 0.01 | 62 | 1012.4 |
| 20260902204602 | 95 | 296 | 3.0 | 0.0 | 0.00 | 0.00 | 0.01 | 63 | 1012.4 |
| 20260902203120 | 95 | 240 | 4.0 | 0.0 | 0.00 | 0.00 | 0.01 | 64 | 1012.5 |
| 20260902201556 | 95 | 274 | 3.0 | 0.0 | 0.00 | 0.00 | 0.01 | 64 | 1012.7 |
| 20260902200057 | 94 | 288 | 3.0 | 0.0 | 0.00 | 0.00 | 0.01 | 67 | 1012.9 |
| 20260902194550 | 92 | 267 | 3.0 | 0.0 | 0.00 | 0.00 | 0.01 | 70 | 1013.0 |
| 20260902193052 | 88 | 288 | 2.0 | 0.0 | 0.00 | 0.00 | 0.01 | 75 | 1013.2 |
| 20260902191553 | 87 | 313 | 0.0 | 0.0 | 0.00 | 0.00 | 0.01 | 78 | 1013.4 |
| 20260902190048 | 88 | 275 | 2.0 | 0.0 | 0.00 | 0.00 | 0.01 | 77 | 1013.6 |
| 20260902184552 | 88 | 281 | 2.0 | 0.0 | 0.00 | 0.00 | 0.01 | 78 | 1013.6 |
| 20260902183049 | 87 | 309 | 4.0 | 0.0 | 0.00 | 0.00 | 0.01 | 80 | 1013.7 |
| 20260902181549 | 88 | 283 | 3.0 | 0.0 | 0.00 | 0.00 | 0.01 | 79 | 1013.7 |
| 20260902180046 | 91 | 277 | 3.0 | 0.0 | 0.00 | 0.00 | 0.00 | 69 | 1013.9 |
| 20260902174545 | 93 | 297 | 3.0 | 0.0 | 0.00 | 0.00 | 0.00 | 66 | 1014.0 |
| 20260902173044 | 92 | 263 | 2.0 | 0.0 | 0.00 | 0.00 | 0.00 | 65 | 1014.0 |
| 20260902171542 | 91 | 124 | 3.0 | 0.0 | 0.00 | 0.00 | 0.00 | 69 | 1014.2 |
| 20260902170045 | 90 | 315 | 5.0 | 0.0 | 0.00 | 0.00 | 0.00 | 66 | 1014.4 |
| 20260902164540 | 90 | 57 | 4.0 | 0.0 | 0.00 | 0.00 | 0.00 | 66 | 1014.5 |
| 20260902163048 | 90 | 142 | 5.0 | 0.0 | 0.00 | 0.00 | 0.00 | 68 | 1014.8 |
| 20260902161537 | 89 | 88 | 3.0 | 0.0 | 0.00 | 0.00 | 0.00 | 69 | 1014.8 |
| 20260902160035 | 90 | 110 | 3.0 | 0.0 | 0.00 | 0.00 | 0.00 | 68 | 1015.0 |
| 20260902154536 | 90 | 55 | 1.0 | 0.0 | 0.00 | 0.00 | 0.00 | 68 | 1015.3 |
| 20260902153031 | 88 | 323 | 2.0 | 0.0 | 0.00 | 0.00 | 0.00 | 70 | 1015.2 |
| 20260902151529 | 88 | 83 | 1.0 | 0.0 | 0.00 | 0.00 | 0.00 | 74 | 1015.2 |
| 20260902150027 | 86 | 107 | 3.0 | 0.0 | 0.00 | 0.00 | 0.00 | 76 | 1015.1 |
| 20260902144534 | 86 | 128 | 1.0 | 0.0 | 0.00 | 0.00 | 0.00 | 75 | 1015.0 |
| 20260902143024 | 85 | 187 | 2.0 | 0.0 | 0.00 | 0.00 | 0.00 | 80 | 1015.0 |
| 20260902141519 | 84 | 129 | 1.0 | 0.0 | 0.00 | 0.00 | 0.00 | 81 | 1015.1 |
| 20260902140016 | 83 | 201 | 1.0 | 0.0 | 0.00 | 0.00 | 0.00 | 86 | 1014.9 |
| 20260902134512 | 81 | 144 | 1.0 | 0.0 | 0.00 | 0.00 | 0.00 | 87 | 1014.7 |
| 20260902133009 | 81 | 141 | 2.0 | 0.0 | 0.00 | 0.00 | 0.00 | 91 | 1014.8 |
| 20260902131508 | 80 | 125 | 2.0 | 0.0 | 0.00 | 0.00 | 0.00 | 92 | 1015.0 |
| 20260902130006 | 80 | 177 | 1.0 | 0.0 | 0.00 | 0.00 | 0.00 | 91 | 1015.0 |
| 20260902124506 | 80 | 185 | 0.0 | 0.0 | 0.00 | 0.00 | 0.00 | 91 | 1014.7 |
| 20260902123004 | 79 | 134 | 1.0 | 0.0 | 0.00 | 0.00 | 0.00 | 93 | 1014.5 |
| 20260902121503 | 79 | 150 | 2.0 | 0.0 | 0.00 | 0.00 | 0.00 | 93 | 1014.3 |
| 20260902120007 | 79 | 142 | 1.0 | 0.0 | 0.00 | 0.00 | 0.00 | 92 | 1014.4 |
| 20260902114500 | 79 | 108 | 1.0 | 0.0 | 0.00 | 0.00 | 0.00 | 95 | 1014.6 |
| 20260902113102 | 78 | 109 | 0.0 | 0.0 | 0.00 | 0.00 | 0.00 | 94 | 1014.7 |
| 20260902111606 | 78 | 130 | 0.0 | 0.0 | 0.00 | 0.00 | 0.00 | 94 | 1014.6 |
| 20260902110100 | 78 | 61 | 0.0 | 0.0 | 0.00 | 0.00 | 0.00 | 93 | 1014.2 |
| 20260902104559 | 78 | 61 | 0.0 | 0.0 | 0.00 | 0.00 | 0.00 | 93 | 1014.1 |
| 20260902103100 | 79 | 108 | 0.0 | 0.0 | 0.00 | 0.00 | 0.00 | 93 | 1014.1 |
| 20260902101559 | 79 | 158 | 0.0 | 0.0 | 0.00 | 0.00 | 0.00 | 93 | 1014.1 |
| 20260902100106 | 78 | 135 | 0.0 | 0.0 | 0.00 | 0.00 | 0.00 | 94 | 1014.0 |
| 20260902094557 | 78 | 135 | 0.0 | 0.0 | 0.00 | 0.00 | 0.00 | 94 | 1013.5 |
| 20260902093058 | 78 | 143 | 0.0 | 0.0 | 0.00 | 0.00 | 0.00 | 94 | 1013.3 |
| 20260902091557 | 78 | 125 | 0.0 | 0.0 | 0.00 | 0.00 | 0.00 | 94 | 1013.4 |
| 20260902090056 | 78 | 143 | 0.0 | 0.0 | 0.00 | 0.00 | 0.00 | 93 | 1013.3 |
| 20260902084554 | 78 | 154 | 0.0 | 0.0 | 0.00 | 0.00 | 0.00 | 93 | 1013.2 |
| 20260902083114 | 78 | 148 | 0.0 | 0.0 | 0.00 | 0.00 | 0.00 | 92 | 1013.4 |
| 20260902081553 | 79 | 169 | 0.0 | 0.0 | 0.00 | 0.00 | 0.00 | 91 | 1013.4 |
| 20260902080056 | 78 | 148 | 0.0 | 0.0 | 0.00 | 0.00 | 0.00 | 92 | 1013.3 |
| 20260902074604 | 78 | 80 | 0.0 | 0.0 | 0.00 | 0.00 | 0.00 | 92 | 1013.5 |
| 20260902073050 | 77 | 144 | 0.0 | 0.0 | 0.00 | 0.00 | 0.00 | 91 | 1013.4 |
| 20260902071549 | 78 | 144 | 0.0 | 0.0 | 0.00 | 0.00 | 0.00 | 91 | 1013.5 |
| 20260902070047 | 78 | 200 | 0.0 | 0.0 | 0.00 | 0.00 | 0.00 | 91 | 1013.7 |
| 20260902064551 | 78 | 151 | 1.0 | 0.0 | 0.00 | 0.00 | 0.00 | 90 | 1013.8 |
| 20260902063056 | 78 | 155 | 0.0 | 0.0 | 0.00 | 0.00 | 0.00 | 90 | 1013.9 |
| 20260902061547 | 78 | 153 | 0.0 | 0.0 | 0.00 | 0.00 | 0.00 | 91 | 1014.0 |
| 20260902060043 | 78 | 144 | 0.0 | 0.0 | 0.00 | 0.00 | 0.00 | 90 | 1014.2 |
| 20260902054545 | 78 | 144 | 0.0 | 0.0 | 0.00 | 0.00 | 0.00 | 90 | 1014.1 |
| 20260902053042 | 78 | 144 | 0.0 | 0.0 | 0.00 | 0.00 | 0.00 | 90 | 1014.0 |
| 20260902051545 | 78 | 209 | 0.0 | 0.0 | 0.00 | 0.00 | 0.00 | 90 | 1014.3 |
| 20260902050056 | 78 | 209 | 0.0 | 0.0 | 0.00 | 0.00 | 0.00 | 90 | 1014.3 |
| 20260902044537 | 78 | 198 | 0.0 | 0.0 | 0.00 | 0.00 | 0.00 | 90 | 1014.2 |
| 20260902043044 | 79 | 190 | 0.0 | 0.0 | 0.00 | 0.00 | 0.00 | 89 | 1014.3 |
| 20260902041534 | 79 | 252 | 0.0 | 0.0 | 0.00 | 0.00 | 0.00 | 89 | 1014.6 |
| 20260902040035 | 79 | 118 | 0.0 | 0.0 | 0.00 | 0.00 | 0.00 | 89 | 1014.5 |
| 20260902034528 | 79 | 118 | 1.0 | 0.0 | 0.00 | 0.00 | 0.00 | 89 | 1014.9 |
| 20260902033030 | 79 | 238 | 1.0 | 0.0 | 0.00 | 0.00 | 0.00 | 88 | 1015.2 |
| 20260902031528 | 79 | 152 | 3.0 | 0.0 | 0.00 | 0.00 | 0.00 | 89 | 1015.0 |